This is the latest recevied weather packets stored in our database for station/object KA7EII-13. If no packets are shown the sender has not sent any weather packets the latest 10 day(s).
| Time | Temp. | Humidity | Pressure | Rain* | Wind** | Luminosity | Snow |
|---|---|---|---|---|---|---|---|
| 1777925552 | 22.78° C | 27% | 1096.6 hPa | 0 mm | - | 252 W/m² | - |
| 1777925250 | 23.33° C | 29% | 1097 hPa | 0 mm | - | 795 W/m² | - |
| 1777924946 | 22.78° C | 29% | 1097.4 hPa | 0 mm | - | 826 W/m² | - |
| 1777924642 | 22.78° C | 30% | 1097.3 hPa | 0 mm | - | 790 W/m² | - |
| 1777924338 | 23.33° C | 29% | 1097.4 hPa | 0 mm | - | 798 W/m² | - |
| 1777924036 | 22.78° C | 30% | 1097.4 hPa | 0 mm | - | 775 W/m² | - |
| 1777923732 | 22.78° C | 31% | 1097.6 hPa | 0 mm | - | 723 W/m² | - |
| 1777923428 | 22.78° C | 31% | 1097.6 hPa | 0 mm | - | 732 W/m² | - |
| 1777923126 | 22.22° C | 29% | 1097.4 hPa | 0 mm | - | 735 W/m² | - |
| 1777922824 | 22.22° C | 31% | 1097.7 hPa | 0 mm | - | 769 W/m² | - |
| 1777922521 | 22.22° C | 34% | 1097.7 hPa | 0 mm | - | 772 W/m² | - |
| 1777922220 | 22.22° C | 32% | 1097.8 hPa | 0 mm | - | 776 W/m² | - |
| 1777921916 | 22.22° C | 31% | 1098 hPa | 0 mm | - | 766 W/m² | - |
| 1777921612 | 21.67° C | 32% | 1098.1 hPa | 0 mm | - | 540 W/m² | - |
| 1777921309 | 22.22° C | 32% | 1098.2 hPa | 0 mm | - | 783 W/m² | - |
| 1777921005 | 21.67° C | 33% | 1098.2 hPa | 0 mm | - | 756 W/m² | - |
| 1777920702 | 21.67° C | 31% | 1098.1 hPa | 0 mm | - | 779 W/m² | - |
| 1777920398 | 21.67° C | 35% | 1098.2 hPa | 0 mm | - | 780 W/m² | - |
| 1777920093 | 21.67° C | 31% | 1098.3 hPa | 0 mm | - | 747 W/m² | - |
| 1777919790 | 21.67° C | 32% | 1098.5 hPa | 0 mm | - | 713 W/m² | - |
| 1777919488 | 21.67° C | 34% | 1098.6 hPa | 0 mm | - | 713 W/m² | - |
| 1777919185 | 21.67° C | 36% | 1098.5 hPa | 0 mm | - | 707 W/m² | - |
| 1777918883 | 21.67° C | 33% | 1098.2 hPa | 0 mm | - | 684 W/m² | - |
| 1777918580 | 21.11° C | 32% | 1098.5 hPa | 0 mm | - | 669 W/m² | - |
| 1777918277 | 21.11° C | 31% | 1098.4 hPa | 0 mm | - | 655 W/m² | - |
* Rain latest hour (hover to see other rain measurements)
** Current wind speed in m/s (hover to see current wind gust speed)